{"data":{"norad_id":67562,"intl_designator":"2026-016B","name":"STARLINK-36398","alt_names":[],"object_type":"PAYLOAD","status":"ACTIVE","operator":null,"country":"US","launch_date":"2026-01-25","launch_site_code":"AFWTR","launch_vehicle":null,"mission":null,"orbit_class":"UNKNOWN","rcs_meters":null,"size_class":null,"mass_kg":null,"dimensions":null,"purposes":["comms"],"wikipedia_slug":null,"has_3d_model":false,"image_url":null,"decayed_at":null,"tle_current":{"epoch":"2026-05-25T02:59:21.361056Z","epoch_age_seconds":65078,"freshness":"FRESH","line1":"1 67562U 26016B   26145.12455279  .00022444  00000+0  69534-3 0  9999","line2":"2 67562  97.2845 205.5414 0000498  56.7675 303.3615 15.33451729 18584","mean_motion":15.33451729,"eccentricity":4.98e-5,"inclination_deg":97.2845,"raan_deg":205.5414,"arg_perigee_deg":56.7675,"mean_anomaly_deg":303.3615,"bstar":0.00069534,"rev_number":1858,"period_min":93.905792583315,"perigee_km":465.18233950594,"apogee_km":465.86396805726,"semimajor_km":6843.6601537816,"source":"CELESTRAK","updated_at":"2026-05-25T13:38:21.612620Z"}}}